Coldwater, MI

3:04 PM EST on December 11, 2017 (GMT -0500)
Branch County Memorial

Weather History for KOEB - November, 2011

Change the Weather History Date:

Wednesday, November 30, 2011

  Actual Average (KJYM) Record (KJYM)
Temperature  
Mean Temperature 32 °F -  
Max Temperature 38 °F 40 °F 63 °F (1962)
Min Temperature 27 °F 26 °F 1 °F (1958)
Degree Days  
Heating Degree Days 32    
Moisture  
Dew Point 27 °F    
Average Humidity 85    
Maximum Humidity 95    
Minimum Humidity 71    
Precipitation  
Precipitation 0.00 in - - ()
Sea Level Pressure  
Sea Level Pressure 29.94 in    
Wind  
Wind Speed 10 mph (WNW)    
Max Wind Speed 15 mph    
Max Gust Speed 21 mph    
Visibility 10 miles    
Events Snow    
Averages and records for this station are not official NWS values.
T = Trace of Precipitation, MM = Missing Value Source: NWS Daily Summary

Daily Weather History Graph

Daily Weather History Graph

Search for Another Location

Airport or City:

Trip Planner

Search our weather history database for the weather conditions in past years. The results will help you decide how hot, cold, wet, or windy it might be!

Date:

Astronomy

Nov. 30, 2011 Rise Set
Actual Time 7:47 AM EST 5:10 PM EST
Civil Twilight 7:16 AM EST 5:41 PM EST
Nautical Twilight 6:41 AM EST 6:15 PM EST
Astronomical Twilight 6:07 AM EST 6:49 PM EST
Moon 12:01 PM EST (11/30) 11:09 PM EST (11/30)
Length of Visible Light 10h 25m
Length of Day
9h 23m
Waxing Crescent, 33% of the Moon is Illuminated
Nov 30
Waxing Crescent
Dec 2
First Quarter
Dec 10
Full
Dec 17
Last Quarter
Dec 24
New

Hourly Weather History & Observations

Time (EST) Temp. Windchill Dew Point Humidity Pressure Visibility Wind Dir Wind Speed Gust Speed Precip Events Conditions
12:14 AM 30.6 °F 21.2 °F 29.1 °F 94% 29.76 in 1.8 mi NNW 11.5 mph - N/A Snow Light Snow
12:34 AM 30.2 °F 20.2 °F 28.4 °F 93% 29.76 in 3.0 mi NNW 12.7 mph - N/A Snow Light Snow
12:55 AM 30.0 °F 21.1 °F 28.2 °F 93% 29.77 in 5.0 mi NNW 10.4 mph - N/A Snow Light Snow
1:14 AM 30.2 °F 22.6 °F 28.4 °F 93% 29.76 in 7.0 mi NW 8.1 mph - N/A Snow Light Snow
1:34 AM 30.6 °F 21.8 °F 27.0 °F 86% 29.76 in 10.0 mi NW 10.4 mph - N/A   Mostly Cloudy
1:54 AM 30.2 °F 21.3 °F 26.4 °F 86% 29.76 in 10.0 mi NW 10.4 mph - N/A   Scattered Clouds
2:14 AM 30.0 °F 21.1 °F 26.4 °F 86% 29.77 in 10.0 mi WNW 10.4 mph - N/A   Scattered Clouds
2:34 AM 29.8 °F 20.9 °F 27.1 °F 90% 29.78 in 10.0 mi NW 10.4 mph - N/A   Scattered Clouds
2:54 AM 30.0 °F 19.5 °F 27.3 °F 90% 29.79 in 10.0 mi NW 13.8 mph - N/A   Mostly Cloudy
3:34 AM 29.1 °F 20.0 °F 25.9 °F 88% 29.79 in 10.0 mi NW 10.4 mph - N/A   Scattered Clouds
3:54 AM 28.4 °F 19.7 °F 25.5 °F 89% 29.80 in 10.0 mi NW 9.2 mph - N/A   Mostly Cloudy
4:14 AM 28.2 °F 18.9 °F 25.2 °F 88% 29.80 in 10.0 mi NW 10.4 mph - N/A   Scattered Clouds
4:34 AM 28.2 °F 18.3 °F 25.0 °F 88% 29.81 in 10.0 mi NW 11.5 mph - N/A   Clear
4:54 AM 28.2 °F 18.3 °F 24.8 °F 87% 29.82 in 10.0 mi NNW 11.5 mph - N/A   Clear
5:15 AM 28.4 °F 18.5 °F 25.5 °F 89% 29.82 in 10.0 mi NW 11.5 mph 18.4 mph N/A   Scattered Clouds
5:34 AM 28.6 °F 18.2 °F 25.7 °F 89% 29.83 in 10.0 mi NW 12.7 mph 20.7 mph N/A   Scattered Clouds
5:54 AM 28.6 °F 19.3 °F 25.7 °F 89% 29.84 in 10.0 mi NW 10.4 mph 19.6 mph N/A   Clear
6:15 AM 28.9 °F 19.8 °F 25.9 °F 88% 29.85 in 10.0 mi NW 10.4 mph - N/A   Clear
6:34 AM 28.9 °F 19.8 °F 25.9 °F 88% 29.86 in 10.0 mi NW 10.4 mph 17.3 mph N/A   Clear
6:54 AM 28.8 °F 20.9 °F 25.7 °F 88% 29.88 in 10.0 mi NW 8.1 mph - N/A   Clear
7:34 AM 28.6 °F 21.5 °F 25.5 °F 88% 29.89 in 10.0 mi NW 6.9 mph - N/A   Clear
7:54 AM 28.2 °F 20.2 °F 25.5 °F 90% 29.90 in 10.0 mi WNW 8.1 mph - N/A   Clear
8:15 AM 28.4 °F 21.2 °F 25.9 °F 90% 29.91 in 10.0 mi NW 6.9 mph - N/A   Clear
8:34 AM 28.6 °F 20.7 °F 25.9 °F 90% 29.91 in 10.0 mi WNW 8.1 mph - N/A   Clear
8:54 AM 28.9 °F 20.4 °F 25.7 °F 88% 29.93 in 10.0 mi NW 9.2 mph - N/A   Clear
9:15 AM 29.8 °F 20.9 °F 26.4 °F 87% 29.93 in 10.0 mi WNW 10.4 mph - N/A   Clear
9:34 AM 30.4 °F 21.0 °F 26.4 °F 85% 29.94 in 10.0 mi NW 11.5 mph - N/A   Clear
9:55 AM 30.9 °F 21.7 °F 26.6 °F 84% 29.95 in 10.0 mi WNW 11.5 mph - N/A   Clear
10:14 AM 31.6 °F 21.2 °F 27.3 °F 84% 29.95 in 10.0 mi NW 15.0 mph - N/A   Clear
10:34 AM 32.0 °F 23.0 °F 27.1 °F 82% 29.96 in 10.0 mi NW 11.5 mph 19.6 mph N/A   Clear
10:55 AM 32.5 °F 23.7 °F 27.5 °F 82% 29.97 in 10.0 mi NW 11.5 mph 16.1 mph N/A   Clear
11:14 AM 32.9 °F 24.7 °F 27.5 °F 81% 29.98 in 10.0 mi NW 10.4 mph 17.3 mph N/A   Clear
11:34 AM 33.6 °F 26.2 °F 27.7 °F 79% 29.98 in 10.0 mi NW 9.2 mph - N/A   Clear
11:55 AM 34.2 °F 26.8 °F 28.0 °F 78% 29.98 in 10.0 mi WNW 9.2 mph - N/A   Clear
12:14 PM 34.7 °F 28.1 °F 29.1 °F 80% 29.97 in 10.0 mi WNW 8.1 mph - N/A   Clear
12:34 PM 35.2 °F 27.1 °F 29.8 °F 81% 29.98 in 10.0 mi WNW 11.5 mph - N/A   Clear
12:55 PM 35.6 °F 29.2 °F 30.0 °F 80% 29.98 in 10.0 mi West 8.1 mph - N/A   Clear
1:14 PM 36.5 °F 30.3 °F 29.8 °F 77% 29.98 in 10.0 mi West 8.1 mph - N/A   Clear
1:34 PM 37.0 °F 31.6 °F 30.2 °F 76% 29.99 in 10.0 mi West 6.9 mph - N/A   Clear
1:54 PM 36.9 °F 30.1 °F 30.7 °F 79% 29.99 in 10.0 mi West 9.2 mph - N/A   Clear
2:14 PM 37.4 °F 31.4 °F 30.9 °F 77% 29.99 in 10.0 mi West 8.1 mph - N/A   Clear
2:35 PM 37.4 °F 32.1 °F 30.7 °F 77% 29.99 in 10.0 mi WSW 6.9 mph - N/A   Clear
2:54 PM 37.9 °F 31.5 °F 30.2 °F 74% 30.00 in 10.0 mi West 9.2 mph - N/A   Clear
3:14 PM 37.8 °F 30.2 °F 29.8 °F 73% 30.01 in 10.0 mi West 11.5 mph - N/A   Clear
3:34 PM 38.1 °F 31.7 °F 29.3 °F 71% 30.01 in 10.0 mi West 9.2 mph - N/A   Clear
3:54 PM 36.7 °F 31.2 °F 28.8 °F 73% 30.02 in 10.0 mi West 6.9 mph - N/A   Clear
4:15 PM 36.3 °F 31.6 °F 28.4 °F 73% 30.02 in 10.0 mi West 5.8 mph - N/A   Clear
4:34 PM 35.6 °F 32.8 °F 28.0 °F 74% 30.03 in 10.0 mi WSW 3.5 mph - N/A   Clear
4:54 PM 33.8 °F 29.6 °F 28.0 °F 79% 30.04 in 10.0 mi WSW 4.6 mph - N/A   Clear
5:15 PM 32.9 °F 28.5 °F 27.9 °F 82% 30.05 in 10.0 mi WSW 4.6 mph - N/A   Clear
5:34 PM 32.0 °F 27.5 °F 27.0 °F 82% 30.06 in 10.0 mi WSW 4.6 mph - N/A   Clear
6:15 PM 30.6 °F 27.1 °F 26.6 °F 85% 30.08 in 10.0 mi SW 3.5 mph - N/A   Clear
6:34 PM 30.4 °F 23.6 °F 26.8 °F 86% 30.08 in 10.0 mi SSW 6.9 mph - N/A   Clear
6:54 PM 27.9 °F 21.5 °F 25.2 °F 90% 30.10 in 10.0 mi SW 5.8 mph - N/A   Clear
7:14 PM 28.4 °F 21.2 °F 27.0 °F 94% 30.10 in 10.0 mi SW 6.9 mph - N/A   Clear
7:34 PM 28.4 °F 21.2 °F 27.0 °F 94% 30.10 in 10.0 mi SW 6.9 mph - N/A   Clear
7:54 PM 27.5 °F 20.2 °F 25.9 °F 94% 30.11 in 10.0 mi SW 6.9 mph - N/A   Clear
8:14 PM 27.1 °F 19.7 °F 25.9 °F 95% 30.11 in 7.0 mi SSW 6.9 mph - N/A   Clear
8:34 PM 27.3 °F 20.9 °F 25.7 °F 94% 30.11 in 7.0 mi SW 5.8 mph - N/A   Clear
8:55 PM 27.9 °F 20.6 °F 26.2 °F 94% 30.11 in 10.0 mi SW 6.9 mph - N/A   Clear
9:14 PM 29.3 °F 23.2 °F 27.1 °F 92% 30.11 in 10.0 mi SSW 5.8 mph - N/A   Clear
9:35 PM 28.9 °F 21.9 °F 26.6 °F 91% 30.12 in 10.0 mi SSW 6.9 mph - N/A   Clear
9:54 PM 27.7 °F 21.3 °F 25.5 °F 92% 30.12 in 10.0 mi SW 5.8 mph - N/A   Clear
10:14 PM 23.2 °F - 20.8 °F 91% 30.13 in 7.0 mi Calm Calm - N/A   Clear
10:35 PM 25.2 °F - 24.6 °F 98% 30.14 in 5.0 mi Calm Calm - N/A   Clear
10:54 PM 23.4 °F 17.4 °F 23.0 °F 99% 30.13 in 0.5 mi SW 4.6 mph - N/A Fog Light Freezing Fog
11:14 PM 24.6 °F 16.7 °F 23.9 °F 97% 30.14 in 7.0 mi WSW 6.9 mph - N/A   Clear
11:35 PM 26.1 °F 19.4 °F 24.3 °F 93% 30.14 in 10.0 mi SW 5.8 mph - N/A   Clear
11:54 PM 25.9 °F 21.7 °F 23.5 °F 91% 30.15 in 10.0 mi WSW 3.5 mph - N/A   Clear